Погода в Намче-Базаре

Непал     27°59′51″N   86°36′32″E
темп.,
°C
ветер,
м/с
пор.,
м/с
влажн.,
%
обл.,
%
осадки,
мм/ч
давл.,
гПа
погр.,
м
11 мая, вт
вт1123:45−5з118098 0.1 1020299
02:45−6юз1189100 0.2 1018255
05:45−6зсз118572 0.4 1018339
08:45−3юз327198 0.1 1017838
11:45−2юз4383100 1.3 1016591
14:45−2зюз338880 3.4 1013480
17:45−3зсз1177100 3.9 1013485
20:45−4ююз128158 0.0 1016262
12 мая, ср
ср1223:45−6юз119265 0.0 1019180
02:45−7с118023 0.0 1018195
05:45−6с116889 0.0 1018146
08:45−3юз326134 0.0 1015694
11:45−2юз3383100 0.8 1013684
14:45−2юз3388100 1.5 1012647
17:45−3юз4481100 1.7 1012548
20:45−4юз118226 0.0 1016247
13 мая, чт
чт1323:45−6юз339067 0.0 1016183
02:45−6юз1192100 0.1 1015227
05:45−5ююз2288100 0.3 1016344
08:45−3ююз3387100 0.3 1015557
11:45−2юз4497100 4.1 1013428
14:45−2юз43100100 3.6 1011226
17:45−4ююз229689 6.9 1014223
20:45−6ю2293100 0.1 1017165
14 мая, пт
пт1423:45−6ю1197100 0.4 1016142
02:45−5ю229695 2.4 1013178
05:45−6ююз3398100 3.9 1014193
08:45−5юз228312 0.3 1016448
11:45−4ююз339599 0.4 1014602
14:45−3юз3395100 0.7 1012523
17:45−5зюз228895 0.9 1014419
20:45−8св11856 0.0 101854
15 мая, сб
сб1523:45−9всв11835 0.0 101945
02:45−9всв21803 0.0 101838
05:45−9св22721 0.0 101816
08:45−5з21611 0.0 1017376
11:45−3ююз227028 0.0 1016709
14:45−1юз328269 0.2 1014647
17:45−3зюз218753 0.3 1015340
20:45−4ссз118730 0.0 1019146